Run Northumberland Tynedale Half Marathon
Skip Navigation Links
14 May 2017
HyperLink
Page 1 of 4 (179 items)
[1]234
Pos
Race No
Name
Time
Net Time
Category
Cat Pos
Gender
Gen Pos
Club
Pace
1765Chris SNOWBALL01:24:0301:24:01SEN1Male1Ashington Hirst Running Club6:24 m/hr
2872David WAKEFIELD01:24:2501:24:24V451Male2Gateshead Harriers & AC6:26 m/hr
3311Colin ARCHER01:25:2901:25:27SEN2Male3Morpeth Harriers & AC6:31 m/hr
4406Alex Jeffreys01:26:4901:26:48V401Male4Serpentine RC6:37 m/hr
5919Kevin WILSON01:28:0301:28:02SEN3Male5Wallsend Harriers & AC6:43 m/hr
6314George ARTHUR01:28:3101:28:30V551Male6South Shields Harriers & AC6:45 m/hr
7402Tom Elmer01:28:5701:28:55SEN4Male7 6:47 m/hr
8507Patrick MARTIN01:29:4201:29:38SEN5Male8Unattached6:50 m/hr
9527Luke MCCORMACK01:29:4901:29:47SEN6Male9Sunderland Strollers6:51 m/hr
10837Tim Tawse01:33:0301:32:59V402Male10Unattached7:06 m/hr
11310Kirstie ANDERSON01:33:5301:33:51V451Female1Tynedale Harriers & AC7:10 m/hr
12528Simon MCGEARY01:34:5601:34:54V452Male11Elswick Harriers7:14 m/hr
13571Ivan NEWTON01:34:5801:34:55V453Male12Tynedale Harriers & AC7:14 m/hr
14860Ismael TORRES01:35:4701:35:41SEN7Male13Unattached7:18 m/hr
15329Peter CANTWELL01:35:5401:35:47SEN8Male14Unattached7:19 m/hr
16325Roland BROWN01:36:0301:36:00V454Male15Ponteland Runners7:19 m/hr
17375Adam HUCKLESBY01:36:3501:36:29SEN9Male16Stocksfield Striders7:22 m/hr
18834Rory TAIT01:37:2501:37:21SEN10Male17Tyne Bridge Harriers7:26 m/hr
19885Jenny Graham01:37:4401:37:35SEN1Female2Unattached7:27 m/hr
20593Amanda ODD01:39:1201:39:06V401Female3Unattached7:34 m/hr
21734Jordan SCUDDER01:39:2301:39:11SEN11Male18Unattached7:35 m/hr
22352Andrew ENZOR01:39:3601:39:34SEN12Male19Unattached7:36 m/hr
23870Mungai WAIRIA01:39:4801:39:47V601Male20Claremont Road Runners7:37 m/hr
24322Ian BROOKS01:40:0201:39:56V403Male21Unattached7:38 m/hr
25342Lee DAGLISH01:42:1201:42:03SEN13Male22Unattached7:48 m/hr
26959Alex ZELLER01:42:2501:42:21SEN14Male23Morpeth Harriers & AC7:49 m/hr
27529Jeff MCGURTY01:42:4701:42:43SEN15Male24South Shields Harriers & AC7:50 m/hr
28319Alexis BIRCHALL01:42:5201:42:43SEN16Male25Unattached7:51 m/hr
29379Jess ILLINGWORTH01:42:5201:42:49SEN2Female4Unattached7:51 m/hr
30313Martin ARMSTRONG01:42:5901:42:50V501Male26Unattached7:51 m/hr
31636Daniel POLLARD01:43:0901:43:03SEN17Male27Unattached7:52 m/hr
32733John SCOTT01:43:1901:43:12V404Male28North Shields Polytechnic Club7:53 m/hr
33394Marc LINTERN01:43:2101:43:15V502Male29Stocksfield Striders7:53 m/hr
34387Jennifer LAPPING01:43:4001:43:34V402Female5Unattached7:54 m/hr
35936Gabby WITHRINGTON01:44:0101:43:51SEN3Female6Unattached7:56 m/hr
36405David Coulter01:44:3501:44:35SEN18Male30 7:59 m/hr
37791John STATTON01:44:4201:44:41SEN19Male31Unattached7:59 m/hr
38653Toby PRICE01:44:5601:44:38V405Male32Unattached8:00 m/hr
39332Michael CHARLTON01:45:0301:44:57SEN20Male33Unattached8:01 m/hr
40691Michael ROBINS01:45:0401:44:52V552Male34Valley Striders AC8:01 m/hr
41938Daniel WOOD01:45:3001:45:20SEN21Male35Unattached8:03 m/hr
42403Paul Barrass01:45:3301:45:15V455Male36 8:03 m/hr
43324Robert BROWN01:45:4001:45:32SEN22Male37Heaton Harriers & AC8:03 m/hr
44877Eamonn WALL01:45:4001:45:31V406Male38Unattached8:03 m/hr
45930Michael WILSON01:46:0301:45:52V407Male39Unattached8:05 m/hr
46374Kris HUBBUCK01:46:1101:46:09SEN23Male40Unattached8:06 m/hr
47899Colette WHITFIELD01:46:1201:46:02SEN4Female7Unattached8:06 m/hr
48308Scott ALLAN01:46:2401:46:20SEN24Male41Morpeth Harriers & AC8:07 m/hr
49545Glen MCWILLIAMS01:46:2501:46:08V553Male42Unattached8:07 m/hr
50334Christopher COLEMAN01:46:4701:46:40SEN25Male43Unattached8:09 m/hr
Page 1 of 4 (179 items)
[1]234
fb

HyperLink Copyright (c) G Vincent, 2017